Weather in Berezovka

Russia / Samara Oblast     53°54′47″N   50°07′53″E
temp.,
°C
wind,
m/s
gust,
m/s
humid.,
%
clouds,
%
prec.,
mm/h
press.,
hPa
HPBL,
m
9 december, thu
thu901:00−2sse71593100 0.0 1027387
04:00−3sse7149272 0.0 1027367
07:00−3se71492100 0.0 1026389
10:00−3sse61488100 0.0 1026426
13:00−2sse61385100 0.0 1025466
16:00−2sse51187100 0.0 1024415
19:00−2sse498999 0.0 1024327
22:00−2sse3694100 0.2 1024241
10 december, fri
fri1001:00−3ese2392100 0.1 102480
04:00−3e2391100 0.1 102498
07:00−3nne249288 0.0 1025126
10:00−3nne489394 0.0 1026293
13:00−2nne6109396 0.0 1026438
16:00−3nne61193100 0.1 1028455
19:00−4nne71192100 0.1 1029558
22:00−7nne6139077 0.1 1031369
11 december, sat
sat1101:00−8nne613865 0.0 1032351
04:00−9nne614835 0.0 1033371
07:00−10nne614825 0.0 1034402
10:00−9nne616781 0.0 1035434
13:00−7ne716730 0.0 1035484
16:00−8ne615760 0.0 1036428
19:00−8ne515780 0.0 1038394
22:00−8ne513825 0.0 1039349
12 december, sun
sun1201:00−9ne411825 0.0 1040275
04:00−9nne26875 0.0 1042133
07:00−9ne36865 0.0 1042120
10:00−8ene36845 0.0 1043137
13:00−6e24765 0.0 1043151
16:00−7e228625 0.0 104435
19:00−8ese22875 0.0 104536
22:00−9se22875 0.0 104441
13 december, mon
mon1301:00−9sse11885 0.0 104524
04:00−9sse22875 0.0 104524
07:00−10sse22875 0.0 104424
10:00−9sse228414 0.0 104431
13:00−6sse237444 0.0 104381
16:00−8sse228325 0.0 104321
19:00−9sse22845 0.0 104228
22:00−9sse22855 0.0 104229